Regional Weather Roundup
Issued by NWS

Home | Current Version | Previous Version | Text Only | Print | Product List | Glossary Off
Versions: 1 2 3 4 5 6 7 8 9 10 11 12 13 14 15 16 17 18 19 20 21 22 23 24 25 26 27 28 29 30 31 32 33 34 35 36 37 38 39 40 41 42 43 44 45 46 47 48 49 50

000
ASUS43 KLOT 240606
RWRIL

ILLINOIS REGIONAL WEATHER ROUNDUP
NATIONAL WEATHER SERVICE CHICAGO/ROMEOVILLE IL
100 AM CDT FRI OCT 24 2014

NOTE: "FAIR" INDICATES FEW OR NO CLOUDS BELOW 12,000 FEET WITH NO
SIGNIFICANT WEATHER AND/OR OBSTRUCTIONS TO VISIBILITY.

* THESE STATIONS ARE NOT UNDER NWS QUALITY CONTROL. THEY ALSO MAY NOT
  REPORT WEATHER SUCH AS PRECIPITATION OR FOG.

ILZ001-002-007-009-015-016-024-240700-
NORTHWEST ILLINOIS

CITY           SKY/WX    TMP DP  RH WIND       PRES   REMARKS
MOLINE         PTCLDY    47  45  93 CALM      30.05S
6HR MIN TEMP:  46; 6HR MAX TEMP:  59;

STERLING*      MOCLDY    52  45  76 CALM      30.04F
SAVANNA*       MOCLDY    51  49  94 CALM      30.04S FOG
$$

ILZ003-004-008-010-011-017-018-240700-
NORTH CENTRAL ILLINOIS

CITY           SKY/WX    TMP DP  RH WIND       PRES   REMARKS
ROCKFORD       PTCLDY    47  45  93 S5        30.05F FOG
6HR MIN TEMP:  46; 6HR MAX TEMP:  52; 6HR PCP: TRACE;

FREEPORT*      CLOUDY    49  47  95 CALM      30.05F
ROCHELLE*      PTCLDY    45  43  93 S5        30.04F
DE KALB*       CLOUDY    49  44  84 S6        30.04F
PERU*          CLOUDY    54  46  73 SW6       30.05F
$$

ILZ005-006-012>014-019>023-240700-
NORTHEAST ILLINOIS

CITY           SKY/WX    TMP DP  RH WIND       PRES   REMARKS
CHICAGO-OHARE  CLOUDY    54  43  66 S6        30.04F
6HR MIN TEMP:  54; 6HR MAX TEMP:  55;

CHICAGO-MIDWAY CLOUDY    56  44  64 S7        30.05F
6HR MIN TEMP:  56; 6HR MAX TEMP:  58; 6HR PCP: TRACE;

AURORA         CLOUDY    53  45  74 S5        30.05F
6HR MIN TEMP:  53; 6HR MAX TEMP:  56;

LANSING*       CLOUDY    52  43  72 S5        30.08S
JOLIET*        CLOUDY    53  45  73 CALM      30.06F
WAUKEGAN       CLOUDY    50  46  86 S3        30.03F
6HR MIN TEMP:  50; 6HR MAX TEMP:  55; 6HR PCP: TRACE;

DUPAGE AIRPORT CLOUDY    53  45  74 S6        30.04F
6HR MIN TEMP:  53; 6HR MAX TEMP:  55;

KANKAKEE*      CLOUDY    51  44  76 S3        30.08S
WHEELING       CLOUDY    56  43  61 S6        30.06F
6HR MIN TEMP:  55; 6HR MAX TEMP:  58;

MORRIS*        CLOUDY    51  49  91 CALM      30.05S
ROMEOVILLE*    CLOUDY    53  44  73 S5        30.06S
NORTHERLY ISL    N/A     55  42  61 SW6         N/A
$$

LMZ740>746-240700-
SOUTHERN LAKE MICHIGAN

STATION/POSITION SKY/WX   TEMP    WIND        PRES    VSBY  WAVE
                          AIR SEA DIR/SP/G                  HT/PER
                          (F)     (DEG/KT/KT) (MB)    (MI)  (FT/S)
SOUTHERN BUOY              55 54  190/ 12/ 14 1017.4F         1/ 3
WAUKEGAN HARBOR            53     200/  3/  4   N/A
HARRISON CRIB              56     190/ 11/ 13   N/A
BURNHAM HARBOR             56     170/  4/  9   N/A
CALUMET HARBOR             55     190/  4/  6 1016.7F
MICHIGAN CITY              53     170/  8/ 10   N/A
$$

ILZ025>027-034>036-040-047-049-050-058-095>099-240700-
WEST-CENTRAL ILLINOIS

CITY           SKY/WX    TMP DP  RH WIND       PRES   REMARKS
QUINCY         MOCLDY    54  50  86 SW7       30.07F
GALESBURG*     CLOUDY    51  50  93 CALM      30.05S
MACOMB*        CLOUDY    53  51  92 W6        30.08S
JACKSONVILLE*  CLEAR     56  48  74 S5        30.06F
PITTSFIELD*    CLEAR     56  50  82 SW3       30.07F
$$

ILZ028>032-037-038-041>044-048-051>054-059>061-240700-
CENTRAL ILLINOIS

CITY           SKY/WX    TMP DP  RH WIND       PRES   REMARKS
PONTIAC        CLOUDY    53  49  86 S5        30.07F
BLOOMINGTON    CLOUDY    54  47  77 SW7       30.08S
DECATUR        CLOUDY    55  46  71 S7        30.09S
PEORIA         MOCLDY    56  46  69 S3        30.06F
6HR MIN TEMP:  54; 6HR MAX TEMP:  58;

LACON*         CLOUDY    54  46  74 CALM      30.05S
LINCOLN*       CLOUDY    55  47  74 CALM      30.06S
SPRINGFIELD    CLOUDY    57  46  66 SW5       30.07F
6HR MIN TEMP:  57; 6HR MAX TEMP:  58;

TAYLORVILLE    CLOUDY    52  45  76 S6        30.08S
$$

ILZ033-039-045-046-055>057-062-063-240700-
EAST-CENTRAL ILLINOIS

CITY           SKY/WX    TMP DP  RH WIND       PRES   REMARKS
CHAMPAIGN      CLOUDY    51  45  79 S6        30.09F
DANVILLE*      CLOUDY    48  43  81 S3        30.06F
RANTOUL*       LGT RAIN  52  46  80 S3        30.08F
MATTOON        CLOUDY    51  42  71 S5        30.09S
PARIS*         MOCLDY    42  41  97 CALM      30.11S
$$

ILZ079-100>102-240700-
SOUTHWEST ILLINOIS

CITY           SKY/WX    TMP DP  RH WIND       PRES   REMARKS
ALTON          CLOUDY    55  48  77 CALM      30.09S
BELLEVILLE     CLOUDY    53  48  84 CALM      30.10R
CAHOKIA*       MOCLDY    51  46  83 CALM      30.10S
SPARTA*        CLOUDY    52  46  79 CALM      30.11S
$$

ILZ064>066-069>071-074>076-080>082-084>086-088>090-092>094-240700-
SOUTH-CENTRAL ILLINOIS

CITY           SKY/WX    TMP DP  RH WIND       PRES   REMARKS
CARBONDALE     CLEAR     44  41  89 S3        30.12S
6HR MIN TEMP:  43; 6HR MAX TEMP:  52;

CAIRO*         FOG       43  40  89 CALM      30.12S VSB 3/4
EFFINGHAM*     CLOUDY    52  42  69 CALM      30.10S
MARION         CLEAR     45  45 100 CALM      30.12S
MT. VERNON     CLOUDY    45  41  87 CALM      30.12R
CENTRALIA*     CLOUDY    53  45  75 S5        30.10S
SALEM*         CLOUDY    53  48  82 S3        30.10S
METROPOLIS*    FOG       43  43 100 CALM      30.11F VSB 1
$$

ILZ067-068-072-073-078-083-087-091-240700-
SOUTHEAST ILLINOIS

CITY           SKY/WX    TMP DP  RH WIND       PRES   REMARKS
LAWRENCEVILLE  PTCLDY    45  43  93 SE3       30.12S
FLORA*         PTCLDY    45  43  93 CALM      30.11S
FAIRFIELD*     MOCLDY    44  43  97 CALM      30.11R
HARRISBURG*    CLEAR     41  41 100 CALM      30.13S FOG
ROBINSON*      MOCLDY    45  44  95 CALM      30.13S
CARMI*         MOCLDY    44  44 100 CALM      30.11S FOG
$$

ABBREVIATIONS USED IN REMARKS
   TC - TEMPERATURE IN CELSIUS
  WCI - WIND CHILL INDEX
   HX - HEAT INDEX
  VSB - VISIBILITY
$$




USA.gov is the U.S. government's official web portal to all federal, state and local government web resources and services.